This demonstration page uses our WeatherBlox Daily Observations layout. Learn more.

40.92945, -100.16068

Hourly Observations for May 31, 2016

Temp ( °F °C ) Dew Point ( °F °C ) Humidity (%) Winds ( mph kmh ) Pressure ( in mb ) Visibility ( mi km ) Precip ( " mm )
12:15 am 00:15 Clear 59 15 55 12.7 86 86 E 3 6 29.85 1011 10 16.0934 N/A
12:35 am 00:35 Clear 59 15 55 12.7 86 86 SSW 6 9 29.85 1011 10 16.0934 N/A
12:55 am 00:55 Clear 59 15 55 13 88 88 W 3 6 29.88 1012 10 16.0934 0 0
1:15 am 01:15 Clear 58 14.5 55 13 91 91 NW 9 15 29.88 1012 10 16.0934 N/A
1:35 am 01:35 Clear 59 14.9 55 12.5 86 86 NW 12 19 29.88 1012 10 16.0934 N/A
1:55 am 01:55 Clear 58 14.7 54 12.2 85 85 WNW 7 11 29.91 1013 10 16.0934 N/A
2:15 am 02:15 Clear 58 14.3 55 12.5 89 89 WNW 7 11 29.91 1013 10 16.0934 N/A
2:35 am 02:35 Clear 58 14.3 55 12.5 89 89 WNW 8 13 29.94 1014 10 16.0934 N/A
2:55 am 02:55 Clear 57 14.1 55 12.5 90 90 WNW 7 11 29.94 1014 10 16.0934 N/A
3:15 am 03:15 Clear 57 14.1 55 12.5 90 90 WNW 6 9 29.94 1014 10 16.0934 N/A
3:35 am 03:35 Clear 57 14 54 12.3 90 90 NW 5 7 29.94 1014 10 16.0934 N/A
3:55 am 03:55 Clear 57 14 54 12.1 88 88 N 5 7 29.94 1014 10 16.0934 N/A
4:15 am 04:15 Clear 57 14.1 53 11.9 87 87 N 5 7 29.94 1014 10 16.0934 N/A
4:35 am 04:35 Clear 57 13.8 53 11.6 87 87 N 5 7 29.97 1015 10 16.0934 N/A
4:55 am 04:55 Clear 56 13.5 53 11.7 89 89 N 7 11 29.97 1015 10 16.0934 N/A
5:15 am 05:15 Clear 56 13.1 53 11.6 91 91 NW 6 9 30 1016 10 16.0934 N/A
5:35 am 05:35 Clear 56 13.4 53 11.6 89 89 NNW 8 13 29.97 1015 10 16.0934 N/A
5:55 am 05:55 Clear 56 13.5 51 10.8 84 84 N 10 17 29.97 1015 10 16.0934 N/A
6:15 am 06:15 Sunny 55 12.9 50 9.9 82 82 N 9 15 30 1016 10 16.0934 N/A
6:35 am 06:35 Sunny 54 12.4 49 9.6 83 83 N 7 11 30.03 1017 10 16.0934 N/A
6:55 am 06:55 Sunny 54 12.1 49 9.6 85 85 NNW 5 7 30.03 1017 7 11.26538 0 0
7:15 am 07:15 Sunny 54 12.1 50 9.8 86 86 NW 7 11 30.03 1017 10 16.0934 N/A
7:35 am 07:35 Sunny 55 12.7 50 10.1 84 84 NNW 6 9 30.03 1017 10 16.0934 N/A
7:55 am 07:55 Sunny 56 13.1 50 9.9 81 81 N 7 11 30.03 1017 10 16.0934 N/A
8:15 am 08:15 Sunny 56 13.1 49 9.5 79 79 N 5 7 30.03 1017 10 16.0934 N/A
8:35 am 08:35 Sunny 58 14.3 50 10 76 76 N 10 17 30 1016 10 16.0934 N/A
8:55 am 08:55 Sunny 59 14.9 50 10.2 74 74 N 13 20 30 1016 10 16.0934 N/A
9:15 am 09:15 Sunny 60 15.3 50 9.8 70 70 N 10 17 30 1016 10 16.0934 N/A
9:35 am 09:35 Sunny 60 15.8 49 9.6 67 67 N 16 26 30 1016 10 16.0934 N/A
9:55 am 09:55 Sunny 61 16.2 49 9.7 66 66 N 9 15 30 1016 10 16.0934 N/A
10:15 am 10:15 Sunny 62 16.7 50 9.8 64 64 N 12 19 30 1016 10 16.0934 N/A
10:35 am 10:35 Sunny 63 17.2 48 9.1 59 59 N 12 19 29.97 1015 10 16.0934 N/A
10:55 am 10:55 Partly Cloudy 63 17.3 48 8.9 58 58 N 15 24 29.97 1015 10 16.0934 N/A
11:15 am 11:15 Partly Cloudy 63 17.3 48 8.8 58 58 N 14 22 29.97 1015 10 16.0934 N/A
11:35 am 11:35 Partly Cloudy 64 18 48 8.9 55 55 N 14 22 29.97 1015 10 16.0934 N/A
11:55 am 11:55 Partly Cloudy 65 18.3 48 8.9 54 54 N 10 17 29.97 1015 10 16.0934 N/A
12:15 pm 12:15 Partly Cloudy 65 18.6 47 8.3 51 51 N 13 20 29.97 1015 10 16.0934 N/A
12:35 pm 12:35 Sunny 66 19 49 9.2 53 53 NNW 13 20 29.97 1015 10 16.0934 N/A
12:55 pm 12:55 Partly Cloudy 65 18.1 46 7.8 51 51 N 12 19 29.97 1015 10 16.0934 N/A
1:15 pm 13:15 Mostly Cloudy 65 18.6 47 8.6 52 52 N 12 19 29.97 1015 10 16.0934 N/A
1:35 pm 13:35 Mostly Cloudy 67 19.5 48 9.1 51 51 NNE 9 15 29.97 1015 10 16.0934 N/A
1:55 pm 13:55 Mostly Cloudy 67 19.4 48 8.9 51 51 N 6 9 29.97 1015 10 16.0934 N/A
2:15 pm 14:15 Partly Cloudy 67 19.7 48 9 50 50 N 7 11 29.97 1015 10 16.0934 N/A
2:35 pm 14:35 Sunny 68 20 49 9.6 51 51 NNW 7 11 29.97 1015 10 16.0934 N/A
2:55 pm 14:55 Sunny 69 20.5 51 10.7 54 54 NNW 6 9 29.91 1013 10 16.0934 N/A
3:15 pm 15:15 Sunny 69 20.5 50 9.8 50 50 NNW 8 13 29.91 1013 10 16.0934 N/A
3:35 pm 15:35 Sunny 70 21 50 9.8 49 49 NNW 8 13 29.91 1013 10 16.0934 N/A
3:55 pm 15:55 Sunny 70 21.2 49 9.4 47 47 NW 9 15 29.91 1013 10 16.0934 N/A
4:15 pm 16:15 Sunny 71 21.4 50 10 48 48 NW 10 17 29.91 1013 10 16.0934 N/A
4:35 pm 16:35 Sunny 71 21.4 49 9.5 47 47 NNW 9 15 29.91 1013 10 16.0934 N/A
4:55 pm 16:55 Sunny 71 21.6 49 9.2 45 45 NW 5 7 29.88 1012 10 16.0934 N/A
5:15 pm 17:15 Sunny 71 21.8 51 10.3 48 48 NNW 8 13 29.88 1012 10 16.0934 N/A
5:35 pm 17:35 Sunny 71 21.7 50 10 47 47 NW 9 15 29.88 1012 10 16.0934 N/A
5:55 pm 17:55 Sunny 71 21.9 51 10.3 48 48 NW 5 7 29.88 1012 10 16.0934 N/A
6:15 pm 18:15 Sunny 71 21.6 49 9.2 45 45 WNW 8 13 29.88 1012 10 16.0934 N/A
6:35 pm 18:35 Sunny 71 21.7 50 9.8 47 47 WNW 5 7 29.88 1012 10 16.0934 N/A
7:15 pm 19:15 Sunny 70 21.1 49 9.4 47 47 WNW 5 7 29.88 1012 10 16.0934 N/A
7:35 pm 19:35 Sunny 69 20.3 50 10.1 52 52 WNW 3 6 29.91 1013 10 16.0934 N/A
7:55 pm 19:55 Partly Cloudy 68 20.1 48 9.1 49 49 WNW 9 15 29.91 1013 10 16.0934 N/A
8:15 pm 20:15 Sunny 67 19.5 49 9.6 53 53 NW 7 11 29.94 1014 10 16.0934 N/A
8:35 pm 20:35 Sunny 65 18.4 52 10.9 62 62 WNW 6 9 29.94 1014 10 16.0934 N/A
8:55 pm 20:55 Sunny 64 17.5 52 11 66 66 NW 6 9 29.94 1014 10 16.0934 N/A
9:15 pm 21:15 Clear 63 17.2 52 11 67 67 Calm 29.97 1015 10 16.0934 N/A
9:35 pm 21:35 Clear 62 16.8 51 10.7 67 67 WSW 3 6 29.97 1015 10 16.0934 N/A
9:55 pm 21:55 Clear 62 16.5 52 11.1 71 71 WSW 3 6 30 1016 10 16.0934 N/A
10:15 pm 22:15 Clear 59 15.2 52 11 76 76 SSW 5 7 30 1016 10 16.0934 N/A
10:35 pm 22:35 Clear 59 15.1 52 11.1 77 77 SSW 3 6 30 1016 10 16.0934 N/A
10:55 pm 22:55 Clear 59 14.9 53 11.5 80 80 S 5 7 30 1016 10 16.0934 N/A
11:15 pm 23:15 Mostly Cloudy 58 14.3 52 11.1 81 81 S 3 6 30 1016 10 16.0934 N/A
11:35 pm 23:35 Mostly Cloudy 58 14.7 53 11.5 81 81 SSW 5 7 30 1016 10 16.0934 N/A
11:55 pm 23:55 Mostly Cloudy 57 14.1 53 11.5 84 84 Calm 30 1016 10 16.0934 N/A

Powered by AerisWeather